Location: Austin
(30.3000°N, 97.7500°W)
Time: 07:33:19
(UTC-05:00)

Cosmos 2297 - Pass Details

Date: 16 June 2025
Orbit: 835 x 857 km, 71.0° (Epoch: 07 July)

Event Time Altitude Azimuth Distance (km) Brightness Sun altitude
Exits shadow 04:05:46 46° 159° (SSE) 1,101 4.0 -24.9°
Maximum altitude 04:07:08 60° 106° (ESE) 946 4.0 -24.7°
Drops below altitude 10° 04:12:39 10° 28° (NNE) 2,449 7.1 -23.9°
Sets 04:15:07 0° 25° (NNE) 3,388 8.1 -23.6°
